Time,TemperatureF,DewpointF,PressureIn,WindDirection,WindDirectionDegrees,WindSpeedMPH,WindSpeedGustMPH,Humidity,HourlyPrecipIn,Conditions,Clouds,dailyrainin,SoftwareType,DateUTC
2013-04-22 00:03:00,40.0,35.0,30.27,SSE,154,2.0,6.0,81,0.00,,,0.00,,2013-04-22 04:03:00,
2013-04-22 00:12:00,40.0,35.0,30.27,SSE,154,2.0,6.0,81,0.00,,,0.00,,2013-04-22 04:12:00,
2013-04-22 00:23:00,39.0,34.0,30.27,SSE,157,2.0,8.0,81,0.00,,,0.00,,2013-04-22 04:23:00,
2013-04-22 00:33:00,39.0,34.0,30.26,South,170,2.0,6.0,82,0.00,,,0.00,,2013-04-22 04:33:00,
2013-04-22 00:43:00,39.0,34.0,30.26,South,170,2.0,6.0,82,0.00,,,0.00,,2013-04-22 04:43:00,
2013-04-22 00:52:00,39.0,34.0,30.26,South,183,3.0,7.0,81,0.00,,,0.00,,2013-04-22 04:52:00,
2013-04-22 01:03:00,38.0,33.0,30.26,South,187,1.0,6.0,82,0.00,,,0.00,,2013-04-22 05:03:00,
2013-04-22 01:12:00,37.0,32.0,30.26,SSE,147,0.0,3.0,83,0.00,,,0.00,,2013-04-22 05:12:00,
2013-04-22 01:22:00,37.0,32.0,30.26,SSE,147,0.0,3.0,83,0.00,,,0.00,,2013-04-22 05:22:00,
2013-04-22 01:32:00,37.0,33.0,30.25,SE,146,1.0,3.0,84,0.00,,,0.00,,2013-04-22 05:32:00,
2013-04-22 01:42:00,37.0,33.0,30.25,SE,146,1.0,3.0,84,0.00,,,0.00,,2013-04-22 05:42:00,
2013-04-22 01:52:00,37.0,32.0,30.25,South,175,2.0,6.0,83,0.00,,,0.00,,2013-04-22 05:52:00,
2013-04-22 02:02:00,37.0,32.0,30.24,South,176,2.0,10.0,82,0.00,,,0.00,,2013-04-22 06:02:00,
2013-04-22 02:12:00,37.0,32.0,30.24,South,176,2.0,10.0,82,0.00,,,0.00,,2013-04-22 06:12:00,
2013-04-22 02:21:00,36.0,31.0,30.24,SSE,166,2.0,5.0,82,0.00,,,0.00,,2013-04-22 06:21:00,
2013-04-22 02:32:00,36.0,31.0,30.24,SSE,167,1.0,5.0,83,0.00,,,0.00,,2013-04-22 06:32:00,
2013-04-22 02:42:00,36.0,31.0,30.24,SSE,167,1.0,5.0,83,0.00,,,0.00,,2013-04-22 06:42:00,
2013-04-22 02:52:00,35.0,30.0,30.24,SSE,151,2.0,5.0,83,0.00,,,0.00,,2013-04-22 06:52:00,
2013-04-22 03:01:00,35.0,30.0,30.23,South,178,1.0,5.0,83,0.00,,,0.00,,2013-04-22 07:01:00,
2013-04-22 03:12:00,35.0,30.0,30.23,South,178,1.0,5.0,83,0.00,,,0.00,,2013-04-22 07:12:00,
2013-04-22 03:21:00,35.0,30.0,30.22,SSE,163,2.0,5.0,83,0.00,,,0.00,,2013-04-22 07:21:00,
2013-04-22 03:32:00,35.0,31.0,30.22,South,169,2.0,3.0,84,0.00,,,0.00,,2013-04-22 07:32:00,
2013-04-22 03:42:00,35.0,31.0,30.22,South,169,2.0,3.0,84,0.00,,,0.00,,2013-04-22 07:42:00,
2013-04-22 03:52:00,35.0,30.0,30.22,South,183,2.0,7.0,83,0.00,,,0.00,,2013-04-22 07:52:00,
2013-04-22 04:02:00,35.0,31.0,30.21,South,173,1.0,5.0,84,0.00,,,0.00,,2013-04-22 08:02:00,
2013-04-22 04:11:00,35.0,31.0,30.21,South,173,1.0,5.0,84,0.00,,,0.00,,2013-04-22 08:11:00,
2013-04-22 04:22:00,35.0,31.0,30.21,South,170,1.0,5.0,84,0.00,,,0.00,,2013-04-22 08:22:00,
2013-04-22 04:32:00,34.0,30.0,30.21,South,173,1.0,3.0,84,0.00,,,0.00,,2013-04-22 08:32:00,
2013-04-22 04:42:00,34.0,30.0,30.21,South,173,1.0,3.0,84,0.00,,,0.00,,2013-04-22 08:42:00,
2013-04-22 04:52:00,34.0,30.0,30.21,South,173,0.0,2.0,85,0.00,,,0.00,,2013-04-22 08:52:00,
2013-04-22 05:01:00,33.0,29.0,30.21,South,173,0.0,0.0,86,0.00,,,0.00,,2013-04-22 09:01:00,
2013-04-22 05:11:00,33.0,29.0,30.21,South,173,0.0,0.0,86,0.00,,,0.00,,2013-04-22 09:11:00,
2013-04-22 05:21:00,33.0,30.0,30.21,South,173,0.0,0.0,87,0.00,,,0.00,,2013-04-22 09:21:00,
2013-04-22 05:33:00,33.0,30.0,30.20,SSE,163,0.0,3.0,88,0.00,,,0.00,,2013-04-22 09:33:00,
2013-04-22 05:42:00,33.0,30.0,30.20,SSE,163,0.0,3.0,88,0.00,,,0.00,,2013-04-22 09:42:00,
2013-04-22 05:52:00,33.0,30.0,30.20,SSE,150,0.0,2.0,87,0.00,,,0.00,,2013-04-22 09:52:00,
2013-04-22 06:03:00,33.0,30.0,30.20,SE,138,0.0,2.0,87,0.00,,,0.00,,2013-04-22 10:03:00,
2013-04-22 06:12:00,33.0,30.0,30.20,SE,138,0.0,2.0,87,0.00,,,0.00,,2013-04-22 10:12:00,
2013-04-22 06:22:00,33.0,30.0,30.19,SSE,150,0.0,3.0,87,0.00,,,0.00,,2013-04-22 10:22:00,
2013-04-22 06:32:00,33.0,30.0,30.20,SSW,196,0.0,3.0,88,0.00,,,0.00,,2013-04-22 10:32:00,
2013-04-22 06:42:00,33.0,30.0,30.20,SSW,196,0.0,3.0,88,0.00,,,0.00,,2013-04-22 10:42:00,
2013-04-22 06:52:00,33.0,30.0,30.20,SSE,159,0.0,3.0,89,0.00,,,0.00,,2013-04-22 10:52:00,
2013-04-22 07:02:00,33.0,30.0,30.20,SSE,152,0.0,1.0,89,0.00,,,0.00,,2013-04-22 11:02:00,
2013-04-22 07:12:00,33.0,30.0,30.20,SSE,152,0.0,0.0,89,0.00,,,0.00,,2013-04-22 11:12:00,
2013-04-22 07:22:00,33.0,30.0,30.20,SSE,152,0.0,0.0,89,0.00,,,0.00,,2013-04-22 11:22:00,
2013-04-22 07:32:00,32.0,29.0,30.21,SSE,152,0.0,0.0,90,0.00,,,0.00,,2013-04-22 11:32:00,
2013-04-22 07:42:00,32.0,29.0,30.21,SSE,152,0.0,0.0,90,0.00,,,0.00,,2013-04-22 11:42:00,
2013-04-22 07:52:00,33.0,30.0,30.21,SSE,152,0.0,0.0,90,0.00,,,0.00,,2013-04-22 11:52:00,
2013-04-22 08:02:00,34.0,31.0,30.21,SSE,151,1.0,5.0,90,0.00,,,0.00,,2013-04-22 12:02:00,
2013-04-22 08:12:00,34.0,31.0,30.21,SE,140,0.0,3.0,88,0.00,,,0.00,,2013-04-22 12:12:00,
2013-04-22 08:21:00,34.0,31.0,30.21,SE,140,0.0,3.0,88,0.00,,,0.00,,2013-04-22 12:21:00,
2013-04-22 08:32:00,36.0,32.0,30.21,SSE,162,1.0,5.0,85,0.00,,,0.00,,2013-04-22 12:32:00,
2013-04-22 08:42:00,36.0,32.0,30.21,SSE,162,1.0,5.0,85,0.00,,,0.00,,2013-04-22 12:42:00,
2013-04-22 08:52:00,37.0,33.0,30.21,SSE,165,0.0,8.0,84,0.00,,,0.00,,2013-04-22 12:52:00,
2013-04-22 09:01:00,39.0,33.0,30.20,South,190,3.0,8.0,80,0.00,,,0.00,,2013-04-22 13:01:00,
2013-04-22 09:11:00,39.0,33.0,30.20,South,190,3.0,8.0,80,0.00,,,0.00,,2013-04-22 13:11:00,
2013-04-22 09:22:00,40.0,34.0,30.20,South,184,2.0,3.0,78,0.00,,,0.00,,2013-04-22 13:22:00,
2013-04-22 09:32:00,42.0,34.0,30.20,SSE,163,2.0,6.0,72,0.00,,,0.00,,2013-04-22 13:32:00,
2013-04-22 09:42:00,42.0,34.0,30.20,SSE,163,2.0,6.0,72,0.00,,,0.00,,2013-04-22 13:42:00,
2013-04-22 09:52:00,43.0,34.0,30.19,South,173,2.0,3.0,69,0.00,,,0.00,,2013-04-22 13:52:00,
2013-04-22 10:02:00,46.0,35.0,30.19,SSE,166,1.0,6.0,64,0.00,,,0.00,,2013-04-22 14:02:00,
2013-04-22 10:12:00,47.0,33.0,30.19,South,190,3.0,7.0,59,0.00,,,0.00,,2013-04-22 14:12:00,
2013-04-22 10:21:00,47.0,33.0,30.19,South,190,3.0,7.0,59,0.00,,,0.00,,2013-04-22 14:21:00,
2013-04-22 10:33:00,47.0,33.0,30.19,South,190,3.0,7.0,59,0.00,,,0.00,,2013-04-22 14:33:00,
2013-04-22 10:42:00,47.0,33.0,30.19,South,190,3.0,7.0,59,0.00,,,0.00,,2013-04-22 14:42:00,
2013-04-22 10:52:00,49.0,33.0,30.18,South,174,4.0,7.0,53,0.00,,,0.00,,2013-04-22 14:52:00,
2013-04-22 11:02:00,51.0,34.0,30.18,South,187,2.0,9.0,52,0.00,,,0.00,,2013-04-22 15:02:00,
2013-04-22 11:12:00,51.0,34.0,30.18,South,187,2.0,9.0,52,0.00,,,0.00,,2013-04-22 15:12:00,
2013-04-22 11:22:00,51.0,34.0,30.18,South,191,3.0,7.0,51,0.00,,,0.00,,2013-04-22 15:22:00,
2013-04-22 11:33:00,53.0,34.0,30.18,SSW,198,2.0,6.0,48,0.00,,,0.00,,2013-04-22 15:33:00,
2013-04-22 11:43:00,53.0,34.0,30.18,SSW,198,2.0,6.0,48,0.00,,,0.00,,2013-04-22 15:43:00,
2013-04-22 11:53:00,54.0,35.0,30.18,SSW,210,1.0,5.0,49,0.00,,,0.00,,2013-04-22 15:53:00,
2013-04-22 12:03:00,54.0,34.0,30.18,SSW,192,3.0,7.0,47,0.00,,,0.00,,2013-04-22 16:03:00,
2013-04-22 12:12:00,54.0,34.0,30.18,SSW,192,3.0,7.0,47,0.00,,,0.00,,2013-04-22 16:12:00,
2013-04-22 12:23:00,55.0,34.0,30.17,SW,214,2.0,6.0,45,0.00,,,0.00,,2013-04-22 16:23:00,
2013-04-22 12:33:00,56.0,34.0,30.17,South,174,2.0,8.0,44,0.00,,,0.00,,2013-04-22 16:33:00,
2013-04-22 12:42:00,56.0,34.0,30.17,South,174,2.0,8.0,44,0.00,,,0.00,,2013-04-22 16:42:00,
2013-04-22 12:52:00,56.0,33.0,30.17,SSW,200,2.0,7.0,42,0.00,,,0.00,,2013-04-22 16:52:00,
2013-04-22 13:02:00,57.0,34.0,30.16,SSE,148,2.0,7.0,41,0.00,,,0.00,,2013-04-22 17:02:00,
2013-04-22 13:12:00,57.0,34.0,30.16,SSE,148,2.0,7.0,41,0.00,,,0.00,,2013-04-22 17:12:00,
2013-04-22 13:22:00,58.0,35.0,30.16,South,188,3.0,7.0,42,0.00,,,0.00,,2013-04-22 17:22:00,
2013-04-22 13:32:00,58.0,34.0,30.14,South,177,4.0,7.0,40,0.00,,,0.00,,2013-04-22 17:32:00,
2013-04-22 13:42:00,58.0,34.0,30.14,South,177,4.0,7.0,40,0.00,,,0.00,,2013-04-22 17:42:00,
2013-04-22 13:52:00,58.0,33.0,30.14,SSE,161,3.0,6.0,39,0.00,,,0.00,,2013-04-22 17:52:00,
2013-04-22 14:02:00,59.0,34.0,30.13,SSW,197,2.0,8.0,39,0.00,,,0.00,,2013-04-22 18:02:00,
2013-04-22 14:12:00,59.0,34.0,30.13,SSW,197,2.0,8.0,39,0.00,,,0.00,,2013-04-22 18:12:00,
2013-04-22 14:22:00,59.0,35.0,30.12,South,184,1.0,7.0,40,0.00,,,0.00,,2013-04-22 18:22:00,
2013-04-22 14:32:00,60.0,34.0,30.12,SSW,211,6.0,12.0,38,0.00,,,0.00,,2013-04-22 18:32:00,
2013-04-22 14:42:00,60.0,34.0,30.12,SSW,211,6.0,12.0,38,0.00,,,0.00,,2013-04-22 18:42:00,
2013-04-22 14:52:00,60.0,36.0,30.11,SSE,165,5.0,10.0,41,0.00,,,0.00,,2013-04-22 18:52:00,
2013-04-22 15:01:00,61.0,36.0,30.11,SSW,193,3.0,9.0,39,0.00,,,0.00,,2013-04-22 19:01:00,
2013-04-22 15:12:00,61.0,36.0,30.11,SSW,193,3.0,9.0,39,0.00,,,0.00,,2013-04-22 19:12:00,
2013-04-22 15:22:00,61.0,36.0,30.10,South,190,3.0,7.0,39,0.00,,,0.00,,2013-04-22 19:22:00,
2013-04-22 15:32:00,60.0,33.0,30.10,SE,138,1.0,7.0,36,0.00,,,0.00,,2013-04-22 19:32:00,
2013-04-22 15:42:00,60.0,33.0,30.10,SE,138,1.0,7.0,36,0.00,,,0.00,,2013-04-22 19:42:00,
2013-04-22 15:52:00,61.0,34.0,30.10,South,173,2.0,7.0,36,0.00,,,0.00,,2013-04-22 19:52:00,
2013-04-22 16:02:00,62.0,34.0,30.09,South,188,5.0,9.0,35,0.00,,,0.00,,2013-04-22 20:02:00,
2013-04-22 16:11:00,62.0,34.0,30.09,South,188,5.0,9.0,35,0.00,,,0.00,,2013-04-22 20:11:00,
2013-04-22 16:22:00,61.0,32.0,30.09,SSW,204,3.0,8.0,34,0.00,,,0.00,,2013-04-22 20:22:00,
2013-04-22 16:32:00,62.0,35.0,30.08,SW,227,1.0,9.0,36,0.00,,,0.00,,2013-04-22 20:32:00,
2013-04-22 16:42:00,62.0,35.0,30.08,SW,227,1.0,9.0,36,0.00,,,0.00,,2013-04-22 20:42:00,
2013-04-22 16:52:00,62.0,34.0,30.07,SSW,198,3.0,7.0,35,0.00,,,0.00,,2013-04-22 20:52:00,
2013-04-22 17:02:00,62.0,33.0,30.06,SSW,202,3.0,8.0,34,0.00,,,0.00,,2013-04-22 21:02:00,
2013-04-22 17:12:00,62.0,34.0,30.05,South,182,5.0,7.0,35,0.00,,,0.00,,2013-04-22 21:12:00,
2013-04-22 17:21:00,62.0,34.0,30.05,South,182,5.0,7.0,35,0.00,,,0.00,,2013-04-22 21:21:00,
2013-04-22 17:33:00,62.0,35.0,30.04,South,183,2.0,6.0,36,0.00,,,0.00,,2013-04-22 21:33:00,
2013-04-22 17:43:00,62.0,35.0,30.04,South,183,2.0,6.0,36,0.00,,,0.00,,2013-04-22 21:43:00,
2013-04-22 17:53:00,61.0,35.0,30.04,South,181,3.0,7.0,37,0.00,,,0.00,,2013-04-22 21:53:00,
2013-04-22 18:03:00,62.0,33.0,30.03,SW,214,3.0,8.0,34,0.00,,,0.00,,2013-04-22 22:03:00,
2013-04-22 18:12:00,62.0,33.0,30.03,SW,214,3.0,8.0,34,0.00,,,0.00,,2013-04-22 22:12:00,
2013-04-22 18:22:00,61.0,34.0,30.02,SSW,203,2.0,8.0,36,0.00,,,0.00,,2013-04-22 22:22:00,
2013-04-22 18:33:00,61.0,34.0,30.02,South,181,5.0,10.0,36,0.00,,,0.00,,2013-04-22 22:33:00,
2013-04-22 18:42:00,61.0,34.0,30.02,South,181,5.0,10.0,36,0.00,,,0.00,,2013-04-22 22:42:00,
2013-04-22 18:52:00,61.0,35.0,30.02,SSW,198,2.0,8.0,38,0.00,,,0.00,,2013-04-22 22:52:00,
2013-04-22 19:02:00,60.0,34.0,30.02,South,186,3.0,7.0,38,0.00,,,0.00,,2013-04-22 23:02:00,
2013-04-22 19:11:00,60.0,35.0,30.01,SSE,160,3.0,7.0,39,0.00,,,0.00,,2013-04-22 23:11:00,
2013-04-22 19:21:00,60.0,35.0,30.01,SSE,160,3.0,7.0,39,0.00,,,0.00,,2013-04-22 23:21:00,
2013-04-22 19:33:00,60.0,35.0,30.01,South,173,3.0,7.0,39,0.00,,,0.00,,2013-04-22 23:33:00,
2013-04-22 19:42:00,60.0,35.0,30.01,South,173,3.0,7.0,39,0.00,,,0.00,,2013-04-22 23:42:00,
2013-04-22 19:52:00,60.0,36.0,30.01,ESE,123,2.0,7.0,40,0.00,,,0.00,,2013-04-22 23:52:00,
2013-04-22 20:02:00,59.0,35.0,30.01,South,189,2.0,5.0,41,0.00,,,0.00,,2013-04-23 00:02:00,
2013-04-22 20:12:00,59.0,35.0,30.01,South,189,2.0,5.0,41,0.00,,,0.00,,2013-04-23 00:12:00,
2013-04-22 20:21:00,59.0,36.0,30.00,South,169,1.0,5.0,42,0.00,,,0.00,,2013-04-23 00:21:00,
2013-04-22 20:32:00,57.0,35.0,30.00,South,181,0.0,3.0,44,0.00,,,0.00,,2013-04-23 00:32:00,
2013-04-22 20:42:00,57.0,35.0,30.00,South,181,0.0,3.0,44,0.00,,,0.00,,2013-04-23 00:42:00,
2013-04-22 20:51:00,57.0,36.0,29.99,South,173,0.0,2.0,45,0.00,,,0.00,,2013-04-23 00:51:00,
2013-04-22 21:01:00,56.0,36.0,30.00,SE,143,0.0,2.0,46,0.00,,,0.00,,2013-04-23 01:01:00,
2013-04-22 21:11:00,56.0,36.0,30.00,SE,143,0.0,2.0,46,0.00,,,0.00,,2013-04-23 01:11:00,
2013-04-22 21:21:00,56.0,36.0,30.01,SE,143,0.0,0.0,46,0.00,,,0.00,,2013-04-23 01:21:00,
2013-04-22 21:32:00,55.0,35.0,30.01,SE,143,0.0,0.0,47,0.00,,,0.00,,2013-04-23 01:32:00,
2013-04-22 21:42:00,55.0,35.0,30.01,SE,143,0.0,0.0,47,0.00,,,0.00,,2013-04-23 01:42:00,
2013-04-22 21:52:00,54.0,35.0,30.01,SE,143,0.0,0.0,48,0.00,,,0.00,,2013-04-23 01:52:00,
2013-04-22 22:02:00,54.0,35.0,30.01,South,176,0.0,3.0,48,0.00,,,0.00,,2013-04-23 02:02:00,
2013-04-22 22:12:00,54.0,35.0,30.01,South,176,0.0,3.0,48,0.00,,,0.00,,2013-04-23 02:12:00,
2013-04-22 22:21:00,54.0,35.0,30.01,South,176,0.0,0.0,48,0.00,,,0.00,,2013-04-23 02:21:00,
2013-04-22 22:32:00,54.0,35.0,30.01,SSE,153,0.0,2.0,49,0.00,,,0.00,,2013-04-23 02:32:00,
2013-04-22 22:42:00,54.0,35.0,30.01,SSE,153,0.0,2.0,49,0.00,,,0.00,,2013-04-23 02:42:00,
2013-04-22 22:52:00,53.0,35.0,30.01,SSE,158,0.0,3.0,50,0.00,,,0.00,,2013-04-23 02:52:00,
2013-04-22 23:02:00,53.0,35.0,30.01,South,177,1.0,7.0,51,0.00,,,0.00,,2013-04-23 03:02:00,
2013-04-22 23:11:00,53.0,35.0,30.01,South,177,1.0,7.0,51,0.00,,,0.00,,2013-04-23 03:11:00,
2013-04-22 23:21:00,52.0,35.0,30.01,South,171,3.0,7.0,53,0.00,,,0.00,,2013-04-23 03:21:00,
2013-04-22 23:33:00,51.0,36.0,30.00,South,188,1.0,8.0,57,0.00,,,0.00,,2013-04-23 03:33:00,
2013-04-22 23:43:00,51.0,36.0,30.00,South,188,1.0,8.0,57,0.00,,,0.00,,2013-04-23 03:43:00,
2013-04-22 23:53:00,51.0,36.0,30.00,SSE,163,2.0,5.0,57,0.00,,,0.00,,2013-04-23 03:53:00,